Change the Weather History Date:

Tuesday, May 28, 2013

  Actual Average Record
Temperature  
Mean Temperature 73 °F -  
Max Temperature 82 °F 78 °F 97 °F (1941)
Min Temperature 64 °F 58 °F 37 °F (1961)
Cooling Degree Days 8    
Growing Degree Days 23 (Base 50)    
Moisture  
Dew Point 62 °F    
Average Humidity 70    
Maximum Humidity 91    
Minimum Humidity 48    
Precipitation  
Precipitation 0.00 in - - ()
Sea Level Pressure  
Sea Level Pressure 30.23 in    
Wind  
Wind Speed 7 mph (South)    
Max Wind Speed 13 mph    
Max Gust Speed 20 mph    
Visibility 10 miles    
Events      
Averages and records for this station are not official NWS values.
T = Trace of Precipitation, MM = Missing Value Source: NWS Daily Summary

Daily Weather History Graph

Daily Weather History Graph

Search for Another Location

Airport or City:

Trip Planner

Search our weather history database for the weather conditions in past years. The results will help you decide how hot, cold, wet, or windy it might be!

Date:

Astronomy

May. 28, 2013 Rise Set
Actual Time 6:06 AM EDT 8:27 PM EDT
Civil Twilight 5:37 AM EDT 8:56 PM EDT
Nautical Twilight 5:01 AM EDT 9:33 PM EDT
Astronomical Twilight 4:21 AM EDT 10:12 PM EDT
Moon 11:54 PM EDT 9:49 AM EDT
Length of Visible Light 15h 19m
Length of Day
14h 21m
Waning Gibbous, 83% of the Moon is Illuminated
May 28
Waning Gibbous
May 31
Last Quarter
Jun 8
New
Jun 16
First Quarter
Jun 23
Full

Hourly Weather History & Observations

Time (EDT) Temp. Heat Index Dew Point Humidity Pressure Visibility Wind Dir Wind Speed Gust Speed Precip Events Conditions
12:15 AM 65.5 °F - 58.5 °F 78% 30.24 in 10.0 mi South 3.5 mph - N/A   Clear
12:35 AM 67.3 °F - 60.6 °F 79% 30.24 in 10.0 mi South 6.9 mph - N/A   Clear
12:55 AM 67.3 °F - 61.0 °F 80% 30.24 in 10.0 mi South 6.9 mph - N/A   Clear
1:15 AM 67.1 °F - 61.3 °F 82% 30.24 in 10.0 mi South 6.9 mph - N/A   Clear
1:35 AM 66.7 °F - 61.7 °F 84% 30.23 in 10.0 mi South 10.4 mph - N/A   Clear
1:55 AM 66.2 °F - 61.7 °F 85% 30.23 in 10.0 mi South 9.2 mph - N/A   Clear
2:15 AM 66.2 °F - 61.9 °F 86% 30.22 in 10.0 mi South 6.9 mph - N/A   Clear
2:35 AM 65.7 °F - 61.7 °F 87% 30.22 in 10.0 mi South 6.9 mph - N/A   Clear
3:15 AM 65.3 °F - 61.7 °F 88% 30.21 in 10.0 mi South 5.8 mph - N/A   Clear
3:35 AM 65.3 °F - 61.7 °F 88% 30.21 in 10.0 mi South 4.6 mph - N/A   Clear
3:55 AM 65.3 °F - 61.7 °F 88% 30.22 in 10.0 mi South 4.6 mph - N/A   Clear
4:15 AM 64.8 °F - 61.7 °F 90% 30.21 in 10.0 mi South 3.5 mph - N/A   Clear
4:35 AM 64.9 °F - 61.3 °F 88% 30.21 in 10.0 mi South 5.8 mph - N/A   Clear
4:55 AM 65.5 °F - 61.7 °F 88% 30.21 in 10.0 mi South 8.1 mph - N/A   Clear
5:15 AM 65.3 °F - 61.7 °F 88% 30.22 in 10.0 mi SSW 6.9 mph - N/A   Clear
5:35 AM 64.9 °F - 61.3 °F 88% 30.22 in 10.0 mi South 5.8 mph - N/A   Clear
5:55 AM 64.8 °F - 61.5 °F 89% 30.23 in 10.0 mi South 6.9 mph - N/A   Clear
6:15 AM 64.6 °F - 61.3 °F 89% 30.23 in 10.0 mi South 6.9 mph - N/A   Clear
6:35 AM 64.6 °F - 61.7 °F 90% 30.25 in 10.0 mi SSW 8.1 mph - N/A   Clear
6:55 AM 64.4 °F - 61.7 °F 91% 30.25 in 10.0 mi SSW 6.9 mph - N/A   Clear
7:15 AM 64.6 °F - 61.7 °F 90% 30.26 in 10.0 mi SSW 4.6 mph - N/A   Clear
7:35 AM 65.3 °F - 61.9 °F 89% 30.26 in 10.0 mi SW 5.8 mph - N/A   Clear
7:55 AM 65.7 °F - 62.1 °F 88% 30.27 in 10.0 mi SW 5.8 mph - N/A   Clear
8:15 AM 66.2 °F - 62.1 °F 86% 30.27 in 10.0 mi SW 6.9 mph - N/A   Scattered Clouds
8:35 AM 66.4 °F - 62.4 °F 87% 30.29 in 10.0 mi SW 5.8 mph - N/A   Mostly Cloudy
8:55 AM 66.7 °F - 62.6 °F 86% 30.28 in 10.0 mi SW 3.5 mph - N/A   Overcast
9:15 AM 68.9 °F - 62.8 °F 81% 30.29 in 10.0 mi SSW 4.6 mph - N/A   Mostly Cloudy
9:35 AM 70.0 °F - 63.0 °F 78% 30.28 in 10.0 mi WSW 4.6 mph - N/A   Scattered Clouds
10:15 AM 72.0 °F - 61.3 °F 69% 30.28 in 10.0 mi West 5.8 mph - N/A   Scattered Clouds
10:35 AM 73.6 °F - 60.8 °F 64% 30.28 in 10.0 mi SW 3.5 mph - N/A   Scattered Clouds
10:55 AM 73.2 °F - 61.0 °F 65% 30.29 in 10.0 mi SW 5.8 mph - N/A   Scattered Clouds
11:15 AM 74.7 °F - 60.6 °F 61% 30.29 in 10.0 mi SSW 8.1 mph - N/A   Scattered Clouds
11:35 AM 74.7 °F - 59.9 °F 60% 30.29 in 10.0 mi SSW 8.1 mph - N/A   Scattered Clouds
11:55 AM 75.2 °F - 61.2 °F 62% 30.29 in 10.0 mi SSW 6.9 mph - N/A   Scattered Clouds
12:15 PM 76.8 °F - 61.0 °F 58% 30.28 in 10.0 mi South 5.8 mph - N/A   Clear
12:35 PM 77.4 °F - 63.1 °F 61% 30.27 in 10.0 mi South 8.1 mph - N/A   Clear
12:55 PM 78.6 °F - 62.2 °F 57% 30.26 in 10.0 mi SSW 8.1 mph - N/A   Clear
1:15 PM 80.2 °F 81.3 °F 61.7 °F 53% 30.26 in 10.0 mi South 8.1 mph - N/A   Clear
1:35 PM 79.9 °F - 62.2 °F 55% 30.25 in 10.0 mi South 10.4 mph - N/A   Clear
1:55 PM 80.2 °F 81.5 °F 62.6 °F 55% 30.24 in 10.0 mi South 6.9 mph - N/A   Scattered Clouds
2:15 PM 80.4 °F 81.6 °F 62.4 °F 54% 30.24 in 10.0 mi SSW 9.2 mph - N/A   Clear
2:35 PM 81.1 °F 82.0 °F 61.3 °F 51% 30.23 in 10.0 mi South 4.6 mph - N/A   Clear
2:55 PM 82.2 °F 83.2 °F 62.4 °F 51% 30.22 in 10.0 mi South 9.2 mph - N/A   Scattered Clouds
3:15 PM 82.4 °F 82.9 °F 60.8 °F 48% 30.22 in 10.0 mi SSW 12.7 mph - N/A   Scattered Clouds
3:35 PM 82.4 °F 83.0 °F 61.3 °F 49% 30.22 in 10.0 mi South 9.2 mph - N/A   Mostly Cloudy
3:55 PM 81.1 °F 82.0 °F 61.3 °F 51% 30.22 in 10.0 mi SSW 9.2 mph - N/A   Mostly Cloudy
4:15 PM 82.0 °F 83.1 °F 63.0 °F 52% 30.21 in 10.0 mi South 8.1 mph - N/A   Scattered Clouds
4:35 PM 81.3 °F 82.6 °F 63.1 °F 54% 30.21 in 10.0 mi South 8.1 mph - N/A   Mostly Cloudy
4:55 PM 80.8 °F 82.0 °F 63.0 °F 54% 30.21 in 10.0 mi South 6.9 mph - N/A   Scattered Clouds
5:15 PM 82.2 °F 83.2 °F 62.2 °F 51% 30.20 in 10.0 mi South 9.2 mph - N/A   Scattered Clouds
5:35 PM 81.1 °F 82.1 °F 62.1 °F 52% 30.20 in 10.0 mi South 5.8 mph - N/A   Clear
5:55 PM 81.7 °F 82.7 °F 62.2 °F 52% 30.19 in 10.0 mi South 6.9 mph - N/A   Clear
6:15 PM 80.8 °F 81.9 °F 62.2 °F 53% 30.19 in 10.0 mi South 8.1 mph - N/A   Clear
6:35 PM 80.6 °F 81.7 °F 62.1 °F 53% 30.19 in 10.0 mi SSE 8.1 mph - N/A   Clear
6:55 PM 80.4 °F 81.7 °F 63.0 °F 55% 30.20 in 10.0 mi South 5.8 mph - N/A   Clear
7:15 PM 79.5 °F - 63.0 °F 57% 30.20 in 10.0 mi South 4.6 mph - N/A   Clear
7:35 PM 78.8 °F - 63.0 °F 58% 30.20 in 10.0 mi South 5.8 mph - N/A   Clear
7:55 PM 78.1 °F - 63.0 °F 60% 30.20 in 10.0 mi South 4.6 mph - N/A   Clear
8:15 PM 76.1 °F - 63.5 °F 65% 30.21 in 10.0 mi SSE 3.5 mph - N/A   Clear
8:35 PM 75.0 °F - 63.3 °F 67% 30.21 in - SSE 3.5 mph - N/A   Clear
8:55 PM 74.3 °F - 63.3 °F 68% 30.20 in - SSE 5.8 mph - N/A   Clear
9:15 PM 75.2 °F - 62.8 °F 65% 30.19 in - South 8.1 mph - N/A   Clear
9:35 PM 75.2 °F - 62.6 °F 65% 30.19 in - South 6.9 mph - N/A   Clear
9:55 PM 74.5 °F - 62.8 °F 67% 30.19 in - South 10.4 mph - N/A   Clear
10:15 PM 73.9 °F - 63.1 °F 69% 30.21 in - South 8.1 mph - N/A   Clear
10:35 PM 73.8 °F - 63.1 °F 69% 30.21 in - South 10.4 mph 16.1 mph N/A   Clear
10:55 PM 73.4 °F - 63.1 °F 70% 30.21 in - South 9.2 mph 19.6 mph N/A   Clear
11:15 PM 72.7 °F - 62.8 °F 71% 30.22 in - South 10.4 mph - N/A   Clear
11:35 PM 72.3 °F - 62.6 °F 71% 30.22 in - South 9.2 mph - N/A   Clear
11:55 PM 71.4 °F - 62.2 °F 73% 30.22 in - South 8.1 mph - N/A   Clear